Location: Oroua River
(40.4333°S, 175.4333°E)
Time: 11:55:59
(UTC+00:00)

UNK - Pass Details

Date: 03 February 2023
Orbit: 663 x 684 km, 98.2° (Epoch: 30 March)

Event Time Altitude Azimuth Distance (km) Brightness Sun altitude
Rises 15:20:21 0° 165° (SSE) 3,043 8.1 -21.0°
Reaches altitude 10° 15:22:36 10° 162° (SSE) 2,123 7.2 -20.7°
Maximum altitude 15:27:14 70° 78° (ENE) 721 3.9 -20.1°
Enters shadow 15:29:21 32° 2° (N) 1,165 4.6 -19.8°
